[[{"header":{"parameterUnit":"m.s-1","parameterCategory":1,"la1":30.2991,"la2":30.254,"lo1":-89.0895,"lo2":-89.0444,"dy":0.0017,"dx":0.0017,"nx":28,"ny":28,"refTime":"2024-03-02T09:00:00:Z","depth":0,"parameterNumber":2,"parameterNumberName":"U-component_of_WINDS"},"data":[0,0,0,0,0,0,0,0,0,0,0,0,0,0,0,0,0,0,0,0,0,0,0,0,0,0,0,0,0,0,0,0,0,0,0,0,0,0,0,0,0,0,0,0,0,0,0,0,0,0,0,0,0,0,0,0,0,0,-3.7634,-3.7635,0,-3.7667,-3.7667,-3.7668,-3.7605,-3.7603,-3.7601,-3.7599,-3.7632,-3.7634,-3.7637,0,0,0,0,0,0,0,0,0,0,0,0,0,-3.7516,-3.7519,-3.7634,-3.7635,-3.7635,-3.7667,-3.7667,-3.7668,-3.7605,-3.7603,-3.76,-3.7598,-3.7631,-3.7634,-3.7637,0,0,0,0,0,0,0,0,0,0,0,0,0,-3.756,-3.752,-3.7634,-3.7608,-3.7606,-3.7667,-3.7668,-3.7668,-3.7606,-3.7603,-3.76,-3.7597,-3.763,-3.7634,-3.7638,-3.7726,0,0,-3.7651,-3.7653,0,0,0,0,0,0,0,0,-3.7558,-3.7565,-3.7611,-3.761,-3.7607,-3.7629,-3.7638,-3.7688,-3.7607,-3.7606,-3.7599,-3.7595,-3.7633,-3.7637,-3.765,-3.7728,-3.7729,-3.7651,-3.7654,-3.7656,-3.7657,0,0,0,0,0,0,0,-3.7555,-3.7563,-3.7647,-3.7612,-3.761,-3.7594,-3.7597,-3.7647,-3.7637,-3.7606,-3.7601,-3.7606,-3.7632,-3.7646,-3.765,-3.773,-3.7651,-3.7655,-3.7657,-3.7659,-3.7881,-3.7885,0,0,0,0,0,0,-3.7555,-3.7561,-3.7646,-3.7648,-3.7575,-3.7599,-3.7602,-3.7625,-3.7636,-3.7634,-3.7609,-3.7603,-3.764,-3.7645,-3.7651,-3.7755,-3.7656,-3.7659,-3.7662,-3.7878,-3.7882,-3.7886,0,0,0,0,0,0,-3.7553,-3.7564,-3.7645,-3.7603,-3.7612,-3.7604,-3.7631,-3.7627,-3.7642,-3.7638,-3.7636,-3.7625,-3.7638,-3.7645,-3.7708,-3.7755,-3.7661,-3.7665,-3.7874,-3.7879,-3.7884,-3.7963,0,0,0,0,0,0,-3.755,-3.7563,-3.7597,-3.7605,-3.7615,-3.7702,-3.7634,-3.763,-3.7649,-3.7642,-3.7653,-3.7652,-3.7636,-3.7702,-3.7712,-3.7759,-3.7668,-3.787,-3.7876,-3.7882,-3.7956,-3.797,-3.7982,0,0,0,0,0,-3.7546,-3.7617,-3.7599,-3.7609,-3.7657,-3.7704,-3.771,-3.7691,-3.7653,-3.7687,-3.7685,-3.7652,-3.7749,-3.7709,-3.772,-3.7769,-3.7867,-3.7875,-3.7882,-3.795,-3.7967,-3.7982,0,0,0,0,0,0,-3.7614,-3.7618,-3.7597,-3.7673,-3.7689,-3.7694,-3.7735,-3.771,-3.7736,-3.7728,-3.7703,-3.7706,-3.7774,-3.7778,-3.7734,-3.7855,-3.7801,-3.7811,-3.7849,-3.7866,-3.7878,-3.7875,-3.7672,0,0,0,0,0,-3.7639,-3.7677,-3.7678,-3.7745,-3.7754,-3.7744,-3.7764,-3.7748,-3.7763,-3.7769,-3.7771,-3.7787,-3.7821,-3.7844,-3.7875,-3.7957,-3.7958,-3.7996,-3.8009,-3.802,-3.8028,-3.8071,-3.8088,-3.7911,-3.7911,-3.7911,0,0,-3.7688,-3.7695,-3.7721,-3.7759,-3.7769,-3.781,-3.775,-3.7795,-3.7824,-3.7776,-3.7835,-3.7838,-3.7853,-3.7926,-3.7958,-3.7932,-3.8078,-3.8029,-3.8038,-3.8041,-3.8081,-3.8098,-3.8113,-3.7916,-3.7915,-3.7914,0,0,-3.78,-3.7809,-3.7866,-3.7878,-3.7894,-3.7887,-3.7901,-3.791,-3.7909,-3.7969,-3.7933,-3.7968,-3.8027,-3.804,-3.8054,-3.8172,-3.8142,-3.8183,-3.825,-3.8292,-3.8306,-3.8319,-3.836,-3.8375,-3.8191,-3.8192,-3.8192,0,-3.7859,-3.7919,-3.7898,-3.7946,-3.7963,-3.7922,-3.7979,-3.7992,-3.8018,-3.8031,-3.8001,-3.8074,-3.8082,-3.8157,-3.8186,-3.8199,-3.8214,-3.818,-3.8306,-3.8318,-3.8329,-3.8368,-3.8384,-3.8196,-3.8196,-3.8195,-3.8195,0,-3.7991,-3.8033,-3.8077,-3.8103,-3.8126,-3.8179,-3.8165,-3.8191,-3.8174,-3.8169,-3.823,-3.8239,-3.8271,-3.8288,-3.8271,-3.836,-3.8343,-3.831,-3.8256,-3.8351,-3.8387,-3.8402,-3.8203,-3.8201,-3.82,-3.8199,0,0,-3.8145,-3.816,-3.8176,-3.8188,-3.8204,-3.8236,-3.8286,-3.8318,-3.834,-3.836,-3.8401,-3.8453,-3.8422,-3.8439,-3.8423,-3.8461,-3.8552,-3.8423,-3.8423,-3.8446,-3.8651,-3.8675,-3.8693,-3.8534,-3.8536,-3.8539,-3.8649,0,-3.8254,-3.8341,-3.8325,-3.841,-3.8448,-3.841,-3.8454,-3.8469,-3.8466,-3.8498,-3.8496,-3.8533,-3.849,-3.85,-3.8535,-3.8534,-3.8593,-3.8526,-3.8571,-3.8573,-3.8567,-3.8711,-3.8737,-3.8841,-3.8663,-3.8666,-3.8668,0,-3.8393,-3.8419,-3.8508,-3.8518,-3.8533,-3.8573,-3.8601,-3.8632,-3.8648,-3.8644,-3.8663,-3.864,-3.869,-3.8637,-3.8705,-3.8659,-3.8677,-3.868,-3.8683,-3.8685,-3.8625,-3.8717,-3.8873,-3.8889,-3.869,-3.8688,-3.8686,0,-3.8495,-3.8552,-3.8612,-3.8623,-3.8637,-3.8666,-3.8673,-3.8686,-3.8706,-3.873,-3.8743,-3.8773,-3.8789,-3.8813,-3.8799,-3.8762,-3.887,-3.8815,-3.8867,-3.8868,-3.889,-3.8889,-3.9051,-3.8904,-3.8904,-3.8904,-3.8904,0,-3.8618,-3.8674,-3.8658,-3.8695,-3.8756,-3.8737,-3.8798,-3.8801,-3.8813,-3.8849,-3.8819,-3.8854,-3.8834,-3.8868,-3.8857,-3.8915,-3.8923,-3.892,-3.8917,-3.8922,-3.8923,-3.8933,-3.8924,-3.8908,-3.8907,-3.8906,-3.8906,0,-3.8742,-3.8734,-3.8797,-3.8805,-3.8808,-3.8853,-3.886,-3.8894,-3.889,-3.8937,-3.8947,-3.8941,-3.8979,-3.8968,-3.9009,-3.9002,-3.9075,-3.9063,-3.907,-3.9066,-3.9118,-3.9113,-3.9292,-3.9314,-3.9154,-3.9156,-3.9157,0,-3.882,-3.8862,-3.8875,-3.8898,-3.8907,-3.8944,-3.8965,-3.8948,-3.897,-3.8992,-3.9024,-3.9059,-3.9087,-3.9149,-3.9148,-3.9179,-3.9167,-3.9227,-3.9171,-3.9175,-3.9166,-3.9163,-3.9167,-3.9238,-3.924,-3.9241,-3.9242,0,-3.896,-3.8954,-3.8985,-3.9016,-3.9041,-3.9064,-3.9084,-3.9104,-3.9089,-3.9116,-3.9155,-3.9176,-3.9218,-3.9253,-3.9282,-3.9289,-3.9263,-3.926,-3.9274,-3.9279,-3.9281,-3.928,-3.9099,-3.9256,-3.9254,-3.9253,-3.9253,-3.9252,-3.9062,-3.9098,-3.9113,-3.9149,-3.9162,-3.9182,-3.9214,-3.9215,-3.9247,-3.928,-3.9269,-3.9313,-3.9328,-3.9364,-3.9375,-3.9409,-3.9385,-3.9405,-3.941,-3.9415,-3.9421,-3.9277,-3.9414,-3.9414,-3.9413,-3.9413,-3.9413,0,-3.92,-3.9208,-3.9241,-3.927,-3.9299,-3.9273,-3.9294,-3.9319,-3.9359,-3.9375,-3.9403,-3.9447,-3.9482,-3.9484,-3.9516,-3.9543,-3.9532,-3.9552,-3.9549,-3.9551,-3.944,-3.9425,-3.956,-3.956,-3.956,-3.956,-3.956,-3.956,-3.9274,-3.9333,-3.9329,-3.9394,-3.9401,-3.9445,-3.9459,-3.9477,-3.949,-3.9541,-3.957,-3.9571,-3.9582,-3.9615,-3.9645,-3.9645,-3.9657,-3.9682,-3.9677,-3.9573,-3.9559,-3.9545,-3.953,-3.9685,-3.9685,-3.9784,-3.9785,-3.9786]},{"header":{"parameterUnit":"m.s-1","parameterCategory":1,"la1":30.2991,"la2":30.254,"lo1":-89.0895,"lo2":-89.0444,"dy":0.0017,"dx":0.0017,"nx":28,"ny":28,"refTime":"2024-03-02T09:00:00:Z","depth":0,"parameterNumber":3,"parameterNumberName":"V-component_of_WINDS"},"data":[0,0,0,0,0,0,0,0,0,0,0,0,0,0,0,0,0,0,0,0,0,0,0,0,0,0,0,0,0,0,0,0,0,0,0,0,0,0,0,0,0,0,0,0,0,0,0,0,0,0,0,0,0,0,0,0,0,0,0.4217,0.4217,0,0.4259,0.426,0.426,0.4293,0.4294,0.4294,0.4294,0.4339,0.4339,0.434,0,0,0,0,0,0,0,0,0,0,0,0,0,0.4167,0.4168,0.4217,0.4217,0.4218,0.4259,0.426,0.426,0.4293,0.4294,0.4294,0.4294,0.4338,0.4339,0.434,0,0,0,0,0,0,0,0,0,0,0,0,0,0.4197,0.4168,0.4217,0.4239,0.4242,0.4259,0.426,0.426,0.4293,0.4294,0.4294,0.4295,0.4338,0.4339,0.434,0.4339,0,0,0.4344,0.4345,0,0,0,0,0,0,0,0,0.4195,0.4199,0.4236,0.4238,0.4241,0.4271,0.4258,0.4287,0.4293,0.4274,0.4294,0.4295,0.4316,0.4319,0.4326,0.4341,0.4343,0.4345,0.4345,0.4346,0.4346,0,0,0,0,0,0,0,0.4193,0.4197,0.4234,0.4236,0.4239,0.4248,0.4253,0.4264,0.4292,0.4275,0.4278,0.4282,0.4317,0.4325,0.4327,0.4343,0.4345,0.4346,0.4347,0.4347,0.4361,0.436,0,0,0,0,0,0,0.4187,0.4195,0.4232,0.4235,0.4219,0.4249,0.4254,0.4261,0.4292,0.4297,0.4282,0.4284,0.4322,0.4326,0.4329,0.433,0.4346,0.4347,0.4348,0.4361,0.4361,0.436,0,0,0,0,0,0,0.4186,0.419,0.4231,0.4216,0.4222,0.4249,0.4257,0.4262,0.4269,0.4296,0.4302,0.4284,0.4323,0.4327,0.4336,0.4332,0.4348,0.4349,0.4362,0.4361,0.4361,0.4331,0,0,0,0,0,0,0.4184,0.419,0.4189,0.4215,0.4222,0.4237,0.4256,0.4262,0.4271,0.4274,0.43,0.4305,0.4323,0.4334,0.4338,0.4334,0.435,0.4362,0.4361,0.4361,0.4333,0.433,0.4327,0,0,0,0,0,0.4183,0.4179,0.4188,0.4193,0.4221,0.4236,0.424,0.4261,0.427,0.427,0.4288,0.4304,0.4332,0.4335,0.4339,0.4336,0.4363,0.4362,0.4361,0.4334,0.433,0.4327,0,0,0,0,0,0,0.4151,0.4182,0.4194,0.4198,0.4214,0.4242,0.4242,0.4257,0.4271,0.4273,0.4299,0.4305,0.4311,0.4325,0.4327,0.4337,0.4349,0.4349,0.4328,0.4324,0.4321,0.4318,0.4351,0,0,0,0,0,0.4144,0.4153,0.418,0.4182,0.4189,0.4214,0.4221,0.4236,0.4254,0.4261,0.428,0.4297,0.431,0.4318,0.4331,0.4335,0.4342,0.4335,0.4332,0.4329,0.4329,0.4333,0.4331,0.4357,0.4357,0.4357,0,0,0.413,0.4149,0.4153,0.4176,0.419,0.4199,0.422,0.4228,0.4236,0.4263,0.4273,0.4287,0.4308,0.4315,0.4319,0.4326,0.4323,0.4328,0.4326,0.4327,0.4332,0.433,0.4327,0.4357,0.4357,0.4357,0,0,0.4111,0.4125,0.4128,0.4142,0.4164,0.4181,0.4182,0.4207,0.4218,0.4228,0.4249,0.4259,0.428,0.4295,0.4305,0.4292,0.4308,0.4296,0.4281,0.4285,0.4283,0.4281,0.4277,0.4276,0.4295,0.4295,0.4295,0,0.4091,0.4105,0.4128,0.4136,0.4146,0.4171,0.4175,0.4188,0.4213,0.4219,0.4227,0.4255,0.4271,0.4282,0.4279,0.4286,0.4289,0.4293,0.4281,0.428,0.4278,0.4275,0.4274,0.4294,0.4294,0.4294,0.4294,0,0.4081,0.4091,0.4091,0.4114,0.4124,0.413,0.4155,0.4162,0.4177,0.4193,0.4204,0.4224,0.4243,0.4247,0.4261,0.426,0.4264,0.4276,0.429,0.4274,0.4272,0.427,0.4291,0.4292,0.4293,0.4293,0,0,0.4042,0.4078,0.4078,0.4089,0.4115,0.4124,0.4131,0.4149,0.4156,0.4172,0.418,0.4198,0.421,0.4221,0.4238,0.4241,0.4231,0.4253,0.4254,0.4249,0.4233,0.4224,0.4222,0.4241,0.4241,0.4241,0.4231,0,0.4026,0.4041,0.4062,0.407,0.408,0.4104,0.4111,0.4129,0.4144,0.4156,0.4174,0.4186,0.42,0.4208,0.4212,0.4231,0.4228,0.4232,0.425,0.425,0.4244,0.4221,0.4211,0.4201,0.423,0.423,0.423,0,0.401,0.4026,0.4034,0.4061,0.4066,0.4071,0.409,0.41,0.4121,0.4133,0.4146,0.4164,0.4174,0.4187,0.4202,0.4204,0.4213,0.4223,0.4224,0.4226,0.4239,0.4223,0.4198,0.4196,0.4229,0.4229,0.4229,0,0.3981,0.4004,0.4013,0.4022,0.4053,0.4056,0.4069,0.4091,0.41,0.4117,0.4124,0.4142,0.4151,0.4165,0.4188,0.4195,0.4201,0.4215,0.4212,0.4211,0.4212,0.4212,0.4188,0.4217,0.4217,0.4217,0.4217,0,0.3962,0.3967,0.4,0.4006,0.4012,0.4037,0.4043,0.4058,0.4077,0.4087,0.4109,0.4118,0.4147,0.4159,0.4177,0.4188,0.4192,0.4202,0.4207,0.42,0.4199,0.4206,0.4208,0.4217,0.4217,0.4217,0.4217,0,0.3931,0.3954,0.3965,0.3993,0.4001,0.4004,0.4029,0.4036,0.4053,0.4065,0.4069,0.4097,0.4113,0.4137,0.416,0.4172,0.418,0.4187,0.4173,0.4176,0.4171,0.4172,0.4152,0.4151,0.4179,0.4179,0.4179,0,0.3918,0.3922,0.3951,0.3959,0.3971,0.3983,0.3994,0.4019,0.4029,0.4054,0.4057,0.4075,0.409,0.4115,0.4137,0.4155,0.4164,0.4156,0.4167,0.416,0.4165,0.4164,0.4165,0.4153,0.4153,0.4152,0.4152,0,0.3891,0.3903,0.3916,0.3934,0.3946,0.3961,0.3978,0.3983,0.4013,0.4023,0.4039,0.4051,0.4075,0.4092,0.4114,0.4128,0.4145,0.4148,0.4149,0.4142,0.4134,0.4139,0.4166,0.4149,0.4149,0.4149,0.415,0.415,0.3869,0.3875,0.3896,0.3911,0.3926,0.3942,0.395,0.3968,0.3982,0.4003,0.4018,0.4033,0.4056,0.4086,0.41,0.4113,0.4121,0.4121,0.4121,0.4121,0.4119,0.4131,0.4117,0.4117,0.4118,0.4118,0.4118,0,0.3845,0.386,0.3874,0.3896,0.3909,0.3923,0.3943,0.3952,0.3966,0.3985,0.3999,0.4019,0.4036,0.4061,0.408,0.4087,0.4095,0.4091,0.4091,0.4094,0.4111,0.4109,0.4084,0.4084,0.4084,0.4084,0.4084,0.4084,0.3834,0.3844,0.3858,0.3876,0.3892,0.3907,0.3917,0.3932,0.3947,0.3968,0.3983,0.3998,0.402,0.4041,0.4059,0.4065,0.4072,0.4065,0.4075,0.409,0.4093,0.4096,0.4094,0.4066,0.4066,0.4057,0.4057,0.4057]}]]